Flag for India Weather past 2 weeks in Allahabad, Uttar Pradesh, India

Now
84 °F

Passing clouds.


Feels Like: 98 °F
Forecast: 77 / 96 °F
Wind: No wind

Location: Varanasi / Babatpur

Current Time: Sep 18, 2014 at 5:47:50 AM

Latest Report: Sep 18, 2014 at 5:00 AM


Visibility: 2 mi

Pressure: 29.59 "Hg

Humidity: 89%

Dew point: 81 °F

Location of AllahabadLocation

Historic Weather in Allahabad — Graph

°F

Allahabad temperature yesterday

Maximum temperature yesterday: 90 °F (at 1:00 PM)
Minimum temperature yesterday: 81 °F (at 7:00 AM)
Average temperature yesterday: 87 °F

Past Weeks' High & Low Weather Summary

 TemperatureHumidityPressure
High95 °F (Sep 5, 2:00 PM)100% (Sep 5, 5:00 AM)29.77 "Hg (Sep 5, 5:00 AM)
Low77 °F (Sep 14, 12:00 AM)59% (Sep 3, 2:00 PM)29.50 "Hg (Sep 5, 5:00 PM)
Average85 °F81%29.62 "Hg
* Reported Sep 3 8:00 AM — Sep 18 4:00 AM, Allahabad, Weather by CustomWeather, © 2014

Note: Actual official high and low records may vary slightly from our data, if they occured in-between our weather recording intervals... More about our weather records

Advertising

Allahabad weather history for previous 24 hours

 ConditionsComfort  
Time TempWeatherWind HumidityBarometerVisibility
4:00 AM
Sep 18
84 °FPassing clouds.No wind89%29.59 "Hg1 mi
12:00 AM86 °FPassing clouds.No wind84%29.59 "Hg2 mi
11:00 PM
Sep 17
86 °FPassing clouds.No wind84%29.59 "Hg2 mi
10:00 PM86 °FPassing clouds.No wind84%29.59 "Hg2 mi
9:00 PM86 °FPassing clouds.No wind84%29.59 "Hg2 mi
8:00 PM88 °FPassing clouds.No wind79%29.59 "Hg2 mi
7:00 PM88 °FPassing clouds.No wind79%29.56 "Hg3 mi
6:00 PM90 °FScattered clouds.No wind75%29.56 "Hg3 mi
5:00 PM90 °FScattered clouds.1 mph71%29.53 "Hg3 mi
4:00 PM90 °FScattered clouds.No wind71%29.53 "Hg3 mi
3:00 PM90 °FScattered clouds.No wind71%29.53 "Hg3 mi
2:00 PM90 °FScattered clouds.2 mph71%29.56 "Hg3 mi
1:00 PM90 °FScattered clouds.5 mph71%29.56 "Hg3 mi
12:00 PM88 °FScattered clouds.2 mph79%29.62 "Hg3 mi
11:00 AM88 °FScattered clouds.2 mph75%29.62 "Hg3 mi
10:00 AM86 °FScattered clouds.2 mph79%29.62 "Hg3 mi
7:00 AM81 °FFog.No wind94%29.59 "Hg1 mi
Weather by CustomWeather, © 2014

See weather overviewHow to use our weather pages